Flag for Canada Weather past 2 weeks in Riverview, New Brunswick, Canada

28 °F

Partly sunny.

Feels Like: 18 °F
Forecast: 19 / 31 °F
Wind: 13 mph from Northwest

Location: Moncton

Current Time: Nov 29, 2015 at 2:13:17 PM

Latest Report: Nov 29, 2015 at 1:52 PM

Visibility: 10 mi

Pressure: 30.11 "Hg

Humidity: 64%

Dew point: 18 °F

Location of RiverviewLocation

Historic Weather in Riverview — Graph


Riverview temperature yesterday

Maximum temperature yesterday: 52 °F (at 12:00 AM)
Minimum temperature yesterday: 30 °F (at 7:00 PM)
Average temperature yesterday: 36 °F

Past Weeks' High & Low Weather Summary

High57 °F (Nov 27, 12:00 PM)100% (Nov 17, 6:00 AM)30.94 "Hg (Nov 17, 6:00 AM)
Low16 °F (Nov 25, 5:00 AM)55% (Nov 25, 3:00 PM)29.44 "Hg (Nov 14, 1:00 PM)
Average36 °F82%30.21 "Hg
* Reported Nov 14 1:00 PM — Nov 29 1:00 PM, Riverview, Weather by CustomWeather, © 2015

Note: Actual official high and low records may vary slightly from our data, if they occured in-between our weather recording intervals... More about our weather records


Riverview weather history for previous 24 hours

Time TempWeatherWind HumidityBarometerVisibility
1:00 PM
Sun, Nov 29
28 °FPartly sunny.15 mph69%30.10 "Hg15 mi
12:00 PM30 °FPartly sunny.13 mph59%30.10 "Hg15 mi
11:00 AM28 °FPartly sunny.9 mph74%30.11 "Hg15 mi
10:00 AM27 °FPassing clouds.9 mph80%30.12 "Hg15 mi
9:00 AM25 °FPartly sunny.8 mph80%30.14 "Hg15 mi
8:00 AM23 °FPassing clouds.9 mph80%30.13 "Hg15 mi
7:00 AM23 °FPassing clouds.8 mph86%30.11 "Hg15 mi
6:00 AM25 °FPassing clouds.8 mph80%30.11 "Hg15 mi
5:00 AM27 °FLow clouds.13 mph86%30.09 "Hg15 mi
4:00 AM25 °FPassing clouds.7 mph93%30.07 "Hg15 mi
3:00 AM27 °FPassing clouds.7 mph80%30.08 "Hg15 mi
2:00 AM27 °FPassing clouds.6 mph80%30.10 "Hg15 mi
1:00 AM27 °FPassing clouds.5 mph80%30.11 "Hg15 mi
12:00 AM30 °FOvercast.5 mph69%30.11 "Hg15 mi
11:00 PM
Sat, Nov 28
30 °FOvercast.6 mph69%30.13 "Hg15 mi
10:00 PM30 °FOvercast.2 mph80%30.14 "Hg15 mi
9:00 PM30 °FOvercast.7 mph75%30.15 "Hg15 mi
8:00 PM30 °FLow clouds.7 mph69%30.16 "Hg15 mi
7:00 PM30 °FLow clouds.2 mph75%30.14 "Hg15 mi
6:00 PM32 °FLow clouds.6 mph69%30.16 "Hg15 mi
5:00 PM32 °FPassing clouds.7 mph69%30.16 "Hg15 mi
4:00 PM32 °FPartly sunny.10 mph69%30.14 "Hg15 mi
3:00 PM34 °FOvercast.12 mph70%30.15 "Hg15 mi
2:00 PM34 °FPartly sunny.12 mph75%30.15 "Hg15 mi
Weather by CustomWeather, © 2015

See weather overviewHow to use our weather pages